Regional Weather Roundup
Issued by NWS

Home | Current Version | Previous Version | Text Only | Print | Product List | Glossary Off
Versions: 1 2 3 4 5 6 7 8 9 10 11 12 13 14 15 16 17 18 19 20 21 22 23 24 25 26 27 28 29 30 31 32 33 34 35 36 37 38 39 40 41 42 43 44 45 46 47 48 49 50

706
ASUS43 KMKX 241000
RWRWI

WISCONSIN REGIONAL WEATHER ROUNDUP
NATIONAL WEATHER SERVICE MILWAUKEE/SULLIVAN WI
500 AM CDT MON APR 24 2017

NOTE: "FAIR" INDICATES FEW OR NO CLOUDS BELOW 12,000 FEET WITH NO
SIGNIFICANT WEATHER AND/OR OBSTRUCTIONS TO VISIBILITY.

WIZ001-002-006>008-014>016-023>028-241100-
NORTHWEST WISCONSIN

CITY           SKY/WX    TMP DP  RH WIND       PRES   REMARKS
SUPERIOR ARPT  CLOUDY    35  29  79 E14G29    29.97F WCI  26
ASHLAND        MOCLDY    34  27  75 NE8       29.99F WCI  27
HAYWARD        PTCLDY    37  30  75 E6        29.92F WCI  32
SIREN          PTCLDY    37  32  84 E6        29.88F WCI  32
CUMBERLAND     CLEAR     37  34  87 SE8       29.89F WCI  31
RICE LAKE      CLEAR     40  36  83 SE14      29.92S WCI  33
CHETEK         CLEAR     39  36  88 SE8G18    29.92S WCI  34
LADYSMITH      CLEAR     37  32  83 SE5       29.96F WCI  33
EAU CLAIRE     NOT AVBL
MENOMONIE      PTCLDY    43  38  83 E10       29.91S
NEW RICHMOND   PTCLDY    45  40  82 SE9       29.86F
OSCEOLA        CLOUDY    46  41  81 E6        29.88S
$$

WIZ003>005-009-010-017-018-241100-
NORTH CENTRAL WISCONSIN

CITY           SKY/WX    TMP DP  RH WIND       PRES   REMARKS
MANITOWISH WTR CLOUDY    31  19  62 E6        29.97F WCI  25
ARBOR VITAE    CLOUDY    33  23  66 SE7       29.97F WCI  27
WOODRUFF       CLOUDY    33  23  66 SE7       29.97F WCI  27
RHINELANDER    PTCLDY    34  23  64 SE10      29.99F WCI  26
EAGLE RIVER    CLOUDY    30  17  59 E6        30.00S WCI  24
LAND O LAKES   CLOUDY    30  17  58 SE8       30.02S WCI  22
PHILLIPS       CLEAR     33  27  76 E7        29.95F WCI  27
TOMAHAWK       PTCLDY    32  24  71 SE3       29.99F
MEDFORD        CLEAR     33  28  85 SE7       29.96F WCI  26
MERRILL        PTCLDY    32  25  75 SE7       30.00S WCI  26
$$

WIZ029-030-035-036-043>047-241100-
CENTRAL WISCONSIN

CITY           SKY/WX    TMP DP  RH WIND       PRES   REMARKS
WAUSAU         CLEAR     32  26  78 SE10      29.98F WCI  24
MOSINEE        CLEAR     32  30  93 SE6       30.00F WCI  26
MARSHFIELD     CLEAR     34  28  79 SE9       29.97F WCI  27
STEVENS POINT  CLEAR     32  28  84 E6        30.01F WCI  26
WAUPACA        PTCLDY    37  29  74 CALM      30.03F
WAUTOMA        PTCLDY    35  30  82 E6        30.01F WCI  30
WISC RAPIDS    PTCLDY    34  28  79 E6        30.00F WCI  29
CAMP DOUGLAS   NOT AVBL
$$

WIZ011>013-019>022-031-037>040-048>050-241100-
NORTHEAST WISCONSIN

CITY           SKY/WX    TMP DP  RH WIND       PRES   REMARKS
ANTIGO         CLOUDY    29  23  77 SE8       30.00F WCI  21
SHAWANO        PTCLDY    36  30  80 E5        30.05F WCI  32
OCONTO         PTCLDY    34  29  82 E5        30.05F WCI  30
STURGEON BAY   CLEAR     35  31  85 E8        30.05F WCI  29
GREEN BAY      PTCLDY    36  31  82 NE5       30.04F WCI  32
MANITOWOC      NOT AVBL
APPLETON       PTCLDY    34  27  75 E7        30.01F WCI  28
CLINTONVILLE   PTCLDY    34  30  86 E6        30.03F WCI  29
OSHKOSH        CLOUDY    39  32  76 E7        30.01F WCI  34
$$

WIZ032>034-041-042-053>061-241100-
SOUTHWEST WISCONSIN

CITY           SKY/WX    TMP DP  RH WIND       PRES   REMARKS
LA CROSSE      CLEAR     48  40  73 E10       29.92F
SPARTA         CLEAR     39  36  90 E6        29.97F WCI  34
VIROQUA        CLEAR     42  39  91 E10       29.95S
BOSCOBEL       CLEAR     45  41  86 CALM      29.97S
PRAIRIE DU CHI CLEAR     45  36  69 SE3       29.95R
PLATTEVILLE    CLEAR     45  36  70 E6        29.97S
$$

WIZ056-057-062-063-064-067-068-241100-
SOUTH CENTRAL WISCONSIN

CITY           SKY/WX    TMP DP  RH WIND       PRES   REMARKS
REEDSBURG      CLOUDY    37  36  96 E5        29.99F WCI  33
BARABOO/DELLS  CLOUDY    36  33  88 E5        29.99F WCI  32
LONE ROCK      NOT AVBL
MINERAL POINT  CLEAR     46  36  66 SE8       29.96F
MADISON        CLEAR     37  33  85 E5        30.00F WCI  33
MIDDLETON      CLEAR     39  37  91 E5        30.00F
WATERTOWN      CLOUDY    35  35 100 CALM      30.01S
MONROE         CLEAR     41  36  81 E7        29.98F
JANESVILLE     CLEAR     36  34  93 NE3       30.00S
$$

WIZ051-052-058>065-066-070>072-241100-
SOUTHEAST WISCONSIN

CITY           SKY/WX    TMP DP  RH WIND       PRES   REMARKS
MILWAUKEE      PTCLDY    39  34  82 N6        30.03S WCI  35
WAUKESHA       CLEAR     34  32  93 E6        30.03S WCI  29
MILWAUKEE/TIMM CLEAR     36  30  80 CALM      30.04S
RACINE         CLEAR     38  35  89 NE5       30.04F WCI  34
KENOSHA        CLEAR     36  34  92 NE5       30.02F WCI  32
FOND DU LAC    PTCLDY    36  28  73 E6        30.02F WCI  31
SHEBOYGAN      CLEAR     35  30  82 NE6       30.03F WCI  30
WEST BEND      CLEAR     34  32  93 CALM      30.03S
JUNEAU         CLOUDY    36  32  88 NE3       30.02F
$$

LSZ147-162-241100-
LAKE SUPERIOR

STATION/POSITION TIME  TEMP    WIND        PRES    WAVE
                       AIR SEA DIR/SP/G            HT/PER
                 (UTC) (F)     (DEG/KT/KT) (MB)    (FT/S)
DEVILS ISLAND    0900   34      70/ 24/ 26 1018.0F
SAXON HARBOR     0930   35      80/  4/  8 1015.9F
$$

LMZ867-665-643>646-241100-
LAKE MICHIGAN

STATION/POSITION TIME  TEMP    WIND        PRES    WAVE
                       AIR SEA DIR/SP/G            HT/PER
                 (UTC) (F)     (DEG/KT/KT) (MB)    (FT/S)
CHAMBERS ISLAND  0940   35      40/ 11/ 13 1017.6F
N MID LAKE BUOY  0850   35 37   80/ 14/ 16 1019.6F   3/ 4
NORTHPORT PIER   0940   36      70/ 11/ 13 1018.3S
KEWAUNEE LAKESHO 0930   38      60/  7/ 11 1017.0F
SHEBOYGAN LAKESH 0900   39      10/ 14/ 15 1017.9R
PORT WASHINGTON  0940   39     350/  4/  7 1017.9S
MILWAUKEE LAKESH 0930   40      20/  9/ 10   N/A
S MID LAKE BUOY  0850   40 40  350/  2/  4 1017.1F   3/ 7
KENOSHA   LAKESH 0900   41      30/ 10/ 12 1016.9
$$

TC  - TEMPERATURE IN CELSIUS
VSB - VISIBILITY IN STATUTE MILES
WCI - WIND CHILL INDEX
HX  - HEAT INDEX





USA.gov is the U.S. government's official web portal to all federal, state and local government web resources and services.